Hourly Data Report for July 04, 2003

SHERBROOKE A
QUEBEC

45°26'00.000" N
71°41'00.000" W
241.40 m
7028124
71610
YSC

Download Data

Hourly Data (July 2003)
Hourly Data Report for July 4, 2003
TIME
LST
Temp Definition
°C
Dew Point Definition
°C
Rel Hum Definition
%
Precip. Amount Definition
mm

Wind Dir Definition
10's deg

Wind Spd Definition
km/h
Visibility Definition
km
Stn Press Definition
kPa
Hmdx Definition


Wind Chill Definition


Weather Definition


00:00 20.2 18.0 87   22 4 4.8 97.99 26    
01:00 18.9 17.3 90   23 7 4.0 98.01      
02:00 20.1 17.8 87   20 6 4.0 98.02 26    
03:00 18.8 17.6 93     0 3.5 98.02      
04:00 18.3 17.4 94     0 2.9 98.02      
05:00 18.7 17.4 92     0 3.2 98.02      
06:00 20.9 18.3 85     0 4.0 98.09 27    
07:00 22.0 18.3 80     0 6.4 98.11 28    
08:00 23.6 18.1 71   20 9 12.9 98.06 30   Cloudy
09:00 23.7 17.6 69   22 7 12.9 98.06 29   Cloudy
10:00 25.5 18.4 65   24 7 16.1 98.00 32   Cloudy
11:00 25.6 19.2 68   31 7 16.1 98.04 33   Mostly Cloudy
12:00 27.3 19.0 61   13 6 19.3 97.94 34   Mostly Cloudy
13:00 28.7 19.2 56   25 15 19.3 97.88 36   Cloudy
14:00 29.0 19.2 56   21 11 19.3 97.84 36   Mostly Cloudy
15:00 27.7 17.6 54   21 13 16.1 97.78 33   Mostly Cloudy
16:00 27.2 18.7 60   23 6 19.3 97.75 34   Mostly Cloudy
17:00 27.8 18.5 57   25 13 11.3 97.72 34    
18:00 25.9 19.9 70   30 13 9.7 97.76 33    
19:00 24.7 20.0 75   20 6 8.0 97.77 32    
20:00 22.6 19.4 82   23 6 6.4 97.83 30    
21:00 21.2 18.9 87   19 7 5.6 97.87 28    
22:00 21.2 18.4 84   25 6 5.6 97.88 28    
23:00 17.9 16.7 93   23 4 2.9 97.89      

Notes on Data Quality.

Legend

  • E = Estimated
  • M = Missing
  • NA = Not Available*
  • [empty] = Indicates an unobserved value
Date modified: